• Join FlightAware (Why Join?)
  • Login
  • US Flag 
01:02PM EDT


 

Airport Tracker/Info


-or-


 

Live Flight TrackerFlight Track Log ✈ EJM103 ✈ 01-Sep-2013 ✈ KCHS - KOXC

Flight Track Log - Related Links

Times and Time Zones

All times are in EDT time to prevent confusion due to time zone crossing. See the EJM103 flight status page for this flight to view local times or setup timezone preferences in your user account.

Time Position Orientation Groundspeed Altitude Reporting Facility
EDT Latitude Longitude Course Direction KTS MPH feet Rate Location/Type
11:29PM 32.9036 -79.9039 68° East 259 298 6,800  Level Jacksonville Center
11:30PM 32.9475 -79.8231 57° Northeast 272 313 9,600 2,760 Climbing Jacksonville Center
11:31PM 33.0042 -79.7469 48° Northeast 285 328 12,400 2,640 Climbing Jacksonville Center
11:32PM 33.0733 -79.6775 40° Northeast 297 342 14,900 2,400 Climbing Jacksonville Center
11:33PM 33.1444 -79.6006 42° Northeast 323 372 17,300 2,400 Climbing Jacksonville Center
11:34PM 33.1462 -79.4508 54° Northeast  Level FlightAware Approximate
11:34PM 33.2197 -79.5233 41° Northeast 343 395 19,700  Level Jacksonville Center
11:35PM 33.2908 -79.4511 40° Northeast 361 415 21,700 1,680 Climbing Jacksonville Center
11:36PM 33.3717 -79.3633 42° Northeast 374 430 23,100 1,500 Climbing Jacksonville Center
11:37PM 33.4589 -79.2703 42° Northeast 395 455 24,700 1,680 Climbing Jacksonville Center
11:39PM 33.6478 -79.0664 42° Northeast 410 472 28,700 1,800 Climbing Washington Center
11:40PM 33.7358 -78.9753 41° Northeast 410 472 30,700 1,860 Climbing Washington Center
11:41PM 33.8242 -78.8839 41° Northeast 415 478 32,400 1,740 Climbing Washington Center
11:42PM 33.9081 -78.7869 44° Northeast 415 478 34,200 1,380 Climbing Washington Center
11:43PM 33.9797 -78.6747 52° Northeast 415 478 35,300 960 Climbing Washington Center
11:44PM 34.0494 -78.5644 53° Northeast 415 478 36,200 840 Climbing Washington Center
11:45PM 34.1231 -78.4492 52° Northeast 426 490 37,000 360 Climbing Washington Center
11:46PM 34.1989 -78.3289 53° Northeast 437 503 37,000  Level Washington Center
11:47PM 34.2789 -78.2033 52° Northeast 456 525 37,000  Level Washington Center
11:48PM 34.3589 -78.0725 53° Northeast 468 539 37,000  Level Washington Center
11:49PM 34.4408 -77.9417 53° Northeast 474 545 37,000 -60 Level Washington Center
11:50PM 34.5206 -77.8153 53° Northeast 474 545 36,900  Descending Washington Center
11:51PM 34.6019 -77.6889 52° Northeast 474 545 37,000  Climbing Washington Center
11:52PM 34.6856 -77.5647 51° Northeast 474 545 37,000 -60 Level Washington Center
11:53PM 34.7669 -77.4353 53° Northeast 474 545 36,900  Descending Washington Center
11:54PM 34.8525 -77.2978 53° Northeast 474 545 37,000  Climbing Washington Center
11:55PM 34.9356 -77.1706 51° Northeast 474 545 37,000  Level Washington Center
11:56PM 35.0183 -77.0503 50° Northeast 474 545 37,000 -60 Level Washington Center
11:57PM 35.0972 -76.9197 54° Northeast 474 545 36,900  Descending Washington Center
11:58PM 35.1756 -76.7914 53° Northeast 474 545 37,000  Climbing Washington Center
11:59PM 35.2497 -76.6731 52° Northeast 474 545 37,000  Level Washington Center
12:00AM 35.3281 -76.5494 52° Northeast 474 545 37,000 -60 Level Washington Center
12:01AM 35.4061 -76.4178 54° Northeast 474 545 36,900 -60 Descending Washington Center
12:02AM 35.4883 -76.2911 51° Northeast 474 545 36,900  Level Washington Center
12:03AM 35.5706 -76.1617 52° Northeast 474 545 37,000  Climbing Washington Center
12:04AM 35.6483 -76.0267 55° Northeast 479 551 37,000  Level Washington Center
12:05AM 35.7319 -75.8939 52° Northeast 479 551 37,000  Level Washington Center
12:06AM 35.8136 -75.7636 52° Northeast 479 551 37,000  Level Washington Center
12:07AM 35.8931 -75.6331 53° Northeast 484 557 37,000 -60 Level Washington Center
12:08AM 35.9744 -75.4997 53° Northeast 484 557 36,900  Descending Washington Center
12:09AM 36.0578 -75.3711 51° Northeast 484 557 37,000  Climbing Washington Center
12:10AM 36.1828 -75.3114 21° North 463 533 36,900  Descending Washington Center
12:11AM 36.3122 -75.3111 360° North 445 512 37,000  Climbing Washington Center
12:12AM 36.4394 -75.2900 North 449 517 37,000 -60 Level Washington Center
12:13AM 36.5750 -75.2686 North 466 536 36,900  Descending Washington Center
12:14AM 36.7061 -75.2447 North 472 543 37,000  Climbing Washington Center
12:15AM 36.8375 -75.2233 North 477 549 36,900 -60 Descending Washington Center
12:16AM 36.9731 -75.1967 North 482 555 36,900  Level Washington Center
12:17AM 37.1067 -75.1753 North 482 555 37,000  Climbing Washington Center
12:18AM 37.2400 -75.1511 North 482 555 37,000  Level Washington Center
12:19AM 37.3756 -75.1267 North 489 563 37,000 -60 Level Washington Center
12:20AM 37.5108 -75.0944 11° North 489 563 36,900 -60 Descending Washington Center
12:21AM 37.6442 -75.0383 18° North 489 563 36,900  Level Washington Center
12:22AM 37.7753 -74.9769 20° North 495 570 37,000  Climbing Washington Center
12:23AM 37.9064 -74.9181 20° North 500 575 37,000  Level Washington Center
12:24AM 38.0372 -74.8561 20° North 500 575 37,000  Level Washington Center
12:25AM 38.1786 -74.7889 20° North 500 575 37,000 -60 Level Washington Center
12:26AM 38.3097 -74.7239 21° North 500 575 36,900  Descending Washington Center
12:27AM 38.4406 -74.6614 21° North 500 575 37,000  Climbing Washington Center
12:28AM 38.5714 -74.5986 21° North 495 570 37,000 -240 Level Washington Center
12:29AM 38.7042 -74.5356 20° North 495 570 36,600 -1,140 Descending Washington Center
12:30AM 38.8331 -74.4778 19° North 495 570 34,700 -2,400 Descending Washington Center
12:32AM 39.0939 -74.3528 20° North 492 566 29,500 -2,760 Descending New York Center
12:33AM 39.2297 -74.2792 23° Northeast 505 581 26,500 -3,000 Descending New York Center
12:34AM 39.3475 -74.1694 36° Northeast 505 581 23,500 -2,700 Descending New York Center
12:35AM 39.4489 -74.0508 42° Northeast 508 585 21,200 -2,280 Descending New York Center
12:36AM 39.5650 -73.9217 41° Northeast 496 571 19,000 -1,920 Descending New York Center
12:39AM 39.7911 -73.6550 42° Northeast 478 550 15,000 -1,260 Descending Boston Center
12:40AM 39.8881 -73.5458 41° Northeast 467 537 14,900 -360 Descending Boston Center
12:41AM 39.9722 -73.4525 40° Northeast 459 528 14,300 -900 Descending Boston Center
12:42AM 40.0628 -73.3456 42° Northeast 447 514 13,200 -1,200 Descending Boston Center
12:43AM 40.1553 -73.2356 42° Northeast 442 509 11,900 -720 Descending Boston Center
12:45AM 40.4000 -73.1167 20° North 433 498 11,000 -300 Descending New York TRACON
12:46AM 40.5333 -73.1167 360° North 435 501 11,000 -60 Level New York TRACON
12:47AM 40.6500 -73.1167 360° North 391 450 10,900 -300 Descending New York TRACON
12:48AM 40.7500 -73.1000 North 289 333 10,400 -1,680 Descending New York TRACON
12:50AM 40.9167 -73.1000 360° North 292 336 5,800 -1,860 Descending New York TRACON
12:51AM 41.0000 -73.1000 360° North 292 336 4,800 -960 Descending New York TRACON
12:52AM 41.0833 -73.1000 360° North 289 333 3,900 -900 Descending New York TRACON
12:53AM 41.1667 -73.1000 360° North 282 325 3,100 -480 Descending New York TRACON
12:54AM 41.2333 -73.1000 360° North 278 320 3,000 -60 Descending New York TRACON
12:55AM 41.3167 -73.1000 360° North 272 313 3,000 -300 Level New York TRACON
12:56AM 41.3833 -73.1167 349° North 224 258 2,400 -780 Descending New York TRACON
12:57AM 41.4333 -73.1333 346° North 165 190 1,400 -600 Descending New York TRACON
12:58AM 41.4833 -73.1333 360° North 163 188 1,200 -240 Descending New York TRACON